Time,TemperatureF,DewpointF,PressureIn,WindDirection,WindDirectionDegrees,WindSpeedMPH,WindSpeedGustMPH,Humidity,HourlyPrecipIn,Conditions,Clouds,dailyrainin,SoftwareType,DateUTC
2013-10-21 00:14:00,42.0,34.0,30.03,SSW,202,0.0,0.0,73,0.00,,,0.00,,2013-10-21 04:14:00,
2013-10-21 00:24:00,42.0,34.0,30.03,SSW,202,0.0,0.0,73,0.00,,,0.00,,2013-10-21 04:24:00,
2013-10-21 00:34:00,42.0,34.0,30.03,SSW,202,0.0,0.0,73,0.00,,,0.00,,2013-10-21 04:34:00,
2013-10-21 00:44:00,42.0,34.0,30.03,SSW,202,0.0,0.0,73,0.00,,,0.00,,2013-10-21 04:44:00,
2013-10-21 00:53:00,41.0,34.0,30.02,SSW,202,0.0,0.0,75,0.00,,,0.00,,2013-10-21 04:53:00,
2013-10-21 01:13:00,41.0,34.0,30.03,SSW,202,0.0,0.0,75,0.00,,,0.00,,2013-10-21 05:13:00,
2013-10-21 01:23:00,40.0,33.0,30.03,SSW,202,0.0,0.0,75,0.00,,,0.00,,2013-10-21 05:23:00,
2013-10-21 01:43:00,40.0,33.0,30.03,SSW,202,0.0,0.0,76,0.00,,,0.00,,2013-10-21 05:43:00,
2013-10-21 01:52:00,40.0,33.0,30.03,SSW,202,0.0,0.0,76,0.00,,,0.00,,2013-10-21 05:52:00,
2013-10-21 02:12:00,40.0,33.0,30.03,SSW,202,0.0,0.0,77,0.00,,,0.00,,2013-10-21 06:12:00,
2013-10-21 02:22:00,40.0,33.0,30.03,SSW,202,0.0,0.0,77,0.00,,,0.00,,2013-10-21 06:22:00,
2013-10-21 02:42:00,39.0,33.0,30.03,SSW,202,0.0,14.0,78,0.00,,,0.00,,2013-10-21 06:42:00,
2013-10-21 02:52:00,39.0,33.0,30.03,SSW,202,0.0,0.0,78,0.00,,,0.00,,2013-10-21 06:52:00,
2013-10-21 03:12:00,39.0,33.0,30.03,SSW,202,0.0,0.0,78,0.00,,,0.00,,2013-10-21 07:12:00,
2013-10-21 03:22:00,39.0,33.0,30.03,SSW,202,0.0,0.0,79,0.00,,,0.00,,2013-10-21 07:22:00,
2013-10-21 03:43:00,39.0,33.0,30.03,SSW,202,0.0,0.0,79,0.00,,,0.00,,2013-10-21 07:43:00,
2013-10-21 03:52:00,39.0,33.0,30.02,SSW,202,0.0,0.0,79,0.00,,,0.00,,2013-10-21 07:52:00,
2013-10-21 04:12:00,39.0,33.0,30.03,SSW,202,0.0,0.0,79,0.00,,,0.00,,2013-10-21 08:12:00,
2013-10-21 04:22:00,39.0,33.0,30.03,SSW,202,0.0,0.0,79,0.00,,,0.00,,2013-10-21 08:22:00,
2013-10-21 04:42:00,38.0,32.0,30.03,SSW,202,0.0,0.0,79,0.00,,,0.00,,2013-10-21 08:42:00,
2013-10-21 04:52:00,38.0,32.0,30.02,SSW,202,0.0,0.0,79,0.00,,,0.00,,2013-10-21 08:52:00,
2013-10-21 05:11:00,38.0,32.0,30.03,SSW,202,0.0,0.0,79,0.00,,,0.00,,2013-10-21 09:11:00,
2013-10-21 05:22:00,38.0,32.0,30.03,SSW,202,0.0,0.0,80,0.00,,,0.00,,2013-10-21 09:22:00,
2013-10-21 05:43:00,38.0,32.0,30.03,SSW,202,0.0,0.0,80,0.00,,,0.00,,2013-10-21 09:43:00,
2013-10-21 05:53:00,38.0,32.0,30.02,SSW,202,0.0,0.0,80,0.00,,,0.00,,2013-10-21 09:53:00,
2013-10-21 06:13:00,37.0,31.0,30.03,SSW,202,0.0,0.0,80,0.00,,,0.00,,2013-10-21 10:13:00,
2013-10-21 06:23:00,37.0,31.0,30.03,SSW,202,0.0,0.0,80,0.00,,,0.00,,2013-10-21 10:23:00,
2013-10-21 06:43:00,37.0,31.0,30.03,SSW,202,0.0,14.0,80,0.00,,,0.00,,2013-10-21 10:43:00,
2013-10-21 06:52:00,37.0,31.0,30.03,SSW,202,0.0,0.0,80,0.00,,,0.00,,2013-10-21 10:52:00,
2013-10-21 07:12:00,37.0,32.0,30.04,SSW,202,0.0,0.0,81,0.00,,,0.00,,2013-10-21 11:12:00,
2013-10-21 07:22:00,37.0,32.0,30.04,SSW,202,0.0,0.0,81,0.00,,,0.00,,2013-10-21 11:22:00,
2013-10-21 07:42:00,36.0,31.0,30.03,SSW,202,0.0,0.0,81,0.00,,,0.00,,2013-10-21 11:42:00,
2013-10-21 07:52:00,35.0,29.0,30.04,SSW,202,0.0,0.0,80,0.00,,,0.00,,2013-10-21 11:52:00,
2013-10-21 08:12:00,35.0,29.0,30.03,SSW,202,0.0,0.0,80,0.00,,,0.00,,2013-10-21 12:12:00,
2013-10-21 08:22:00,34.0,29.0,30.04,SSW,202,0.0,0.0,81,0.00,,,0.00,,2013-10-21 12:22:00,
2013-10-21 08:42:00,35.0,30.0,30.04,SSW,202,0.0,0.0,82,0.00,,,0.00,,2013-10-21 12:42:00,
2013-10-21 08:52:00,35.0,30.0,30.04,SSW,202,0.0,0.0,82,0.00,,,0.00,,2013-10-21 12:52:00,
2013-10-21 09:11:00,34.0,29.0,30.04,SSW,202,0.0,0.0,83,0.00,,,0.00,,2013-10-21 13:11:00,
2013-10-21 09:22:00,35.0,30.0,30.04,SSW,202,0.0,0.0,83,0.00,,,0.00,,2013-10-21 13:22:00,
2013-10-21 09:42:00,35.0,30.0,30.04,SSW,202,0.0,0.0,83,0.00,,,0.00,,2013-10-21 13:42:00,
2013-10-21 09:52:00,35.0,30.0,30.04,SSW,202,0.0,0.0,83,0.00,,,0.00,,2013-10-21 13:52:00,
2013-10-21 10:12:00,37.0,33.0,30.04,SSW,202,0.0,0.0,84,0.00,,,0.00,,2013-10-21 14:12:00,
2013-10-21 10:22:00,39.0,35.0,30.04,SSW,202,0.0,0.0,85,0.00,,,0.00,,2013-10-21 14:22:00,
2013-10-21 10:42:00,41.0,37.0,30.03,WNW,292,0.0,0.0,84,0.00,,,0.00,,2013-10-21 14:42:00,
2013-10-21 10:52:00,43.0,38.0,30.03,North,0,0.0,0.0,83,0.00,,,0.00,,2013-10-21 14:52:00,
2013-10-21 11:12:00,44.0,38.0,30.03,WSW,248,0.0,0.0,80,0.00,,,0.00,,2013-10-21 15:12:00,
2013-10-21 11:21:00,47.0,39.0,30.02,SSW,203,1.0,3.0,75,0.00,,,0.00,,2013-10-21 15:21:00,
2013-10-21 11:43:00,49.0,40.0,30.01,SW,221,0.0,6.0,72,0.00,,,0.00,,2013-10-21 15:43:00,
2013-10-21 11:54:00,50.0,40.0,30.01,SW,217,3.0,8.0,69,0.00,,,0.00,,2013-10-21 15:54:00,
2013-10-21 12:13:00,52.0,41.0,30.01,SSW,209,2.0,7.0,66,0.00,,,0.00,,2013-10-21 16:13:00,
2013-10-21 12:23:00,53.0,41.0,30.01,SW,225,1.0,7.0,64,0.00,,,0.00,,2013-10-21 16:23:00,
2013-10-21 12:43:00,54.0,42.0,30.00,SSW,202,0.0,8.0,63,0.00,,,0.00,,2013-10-21 16:43:00,
2013-10-21 12:53:00,55.0,41.0,30.00,SSW,210,1.0,8.0,60,0.00,,,0.00,,2013-10-21 16:53:00,
2013-10-21 13:12:00,56.0,42.0,29.99,SSW,204,0.0,7.0,59,0.00,,,0.00,,2013-10-21 17:12:00,
2013-10-21 13:22:00,56.0,42.0,29.99,SSW,204,0.0,7.0,59,0.00,,,0.00,,2013-10-21 17:22:00,
2013-10-21 13:43:00,59.0,42.0,29.98,SSW,196,3.0,9.0,54,0.00,,,0.00,,2013-10-21 17:43:00,
2013-10-21 13:53:00,60.0,42.0,29.97,SW,222,6.0,14.0,51,0.00,,,0.00,,2013-10-21 17:53:00,
2013-10-21 14:12:00,60.0,41.0,29.97,SSW,210,4.0,9.0,50,0.00,,,0.00,,2013-10-21 18:12:00,
2013-10-21 14:22:00,61.0,42.0,29.95,SSW,204,3.0,14.0,49,0.00,,,0.00,,2013-10-21 18:22:00,
2013-10-21 14:42:00,62.0,42.0,29.95,WSW,255,1.0,10.0,48,0.00,,,0.00,,2013-10-21 18:42:00,
2013-10-21 14:52:00,62.0,42.0,29.95,WSW,255,1.0,10.0,48,0.00,,,0.00,,2013-10-21 18:52:00,
2013-10-21 15:11:00,62.0,41.0,29.94,SW,219,6.0,12.0,46,0.00,,,0.00,,2013-10-21 19:11:00,
2013-10-21 15:22:00,62.0,41.0,29.94,SW,215,1.0,8.0,46,0.00,,,0.00,,2013-10-21 19:22:00,
2013-10-21 15:42:00,62.0,40.0,29.93,West,281,0.0,9.0,45,0.00,,,0.00,,2013-10-21 19:42:00,
2013-10-21 15:52:00,62.0,41.0,29.92,West,273,0.0,6.0,46,0.00,,,0.00,,2013-10-21 19:52:00,
2013-10-21 16:11:00,62.0,40.0,29.92,South,191,0.0,10.0,45,0.00,,,0.00,,2013-10-21 20:11:00,
2013-10-21 16:22:00,62.0,40.0,29.92,SW,234,1.0,8.0,45,0.00,,,0.00,,2013-10-21 20:22:00,
2013-10-21 16:43:00,62.0,40.0,29.91,SW,220,3.0,9.0,44,0.00,,,0.00,,2013-10-21 20:43:00,
2013-10-21 16:52:00,62.0,40.0,29.91,SSW,206,0.0,9.0,44,0.00,,,0.00,,2013-10-21 20:52:00,
2013-10-21 17:12:00,62.0,40.0,29.91,SW,216,2.0,6.0,44,0.00,,,0.00,,2013-10-21 21:12:00,
2013-10-21 17:22:00,62.0,40.0,29.91,SW,225,1.0,6.0,44,0.00,,,0.00,,2013-10-21 21:22:00,
2013-10-21 17:54:00,62.0,40.0,29.91,SW,225,2.0,6.0,45,0.00,,,0.00,,2013-10-21 21:54:00,
2013-10-21 18:13:00,61.0,39.0,29.91,South,190,0.0,7.0,44,0.00,,,0.00,,2013-10-21 22:13:00,
2013-10-21 18:24:00,61.0,40.0,29.91,SSW,202,0.0,0.0,45,0.00,,,0.00,,2013-10-21 22:24:00,
2013-10-21 18:44:00,60.0,39.0,29.92,SSW,202,0.0,0.0,46,0.00,,,0.00,,2013-10-21 22:44:00,
2013-10-21 18:53:00,59.0,39.0,29.92,SSW,202,0.0,0.0,48,0.00,,,0.00,,2013-10-21 22:53:00,
2013-10-21 19:13:00,59.0,39.0,29.92,SSW,202,0.0,0.0,48,0.00,,,0.00,,2013-10-21 23:13:00,
2013-10-21 19:22:00,58.0,39.0,29.91,SSW,202,0.0,0.0,49,0.00,,,0.00,,2013-10-21 23:22:00,
2013-10-21 19:42:00,57.0,38.0,29.91,SSW,202,0.0,0.0,49,0.00,,,0.00,,2013-10-21 23:42:00,
2013-10-21 19:53:00,56.0,38.0,29.91,SSW,202,0.0,0.0,51,0.00,,,0.00,,2013-10-21 23:53:00,
2013-10-21 20:12:00,56.0,38.0,29.91,SSW,202,0.0,0.0,51,0.00,,,0.00,,2013-10-22 00:12:00,
2013-10-21 20:22:00,55.0,38.0,29.91,SSW,202,0.0,0.0,53,0.00,,,0.00,,2013-10-22 00:22:00,
2013-10-21 20:42:00,54.0,37.0,29.90,SSW,202,0.0,0.0,53,0.00,,,0.00,,2013-10-22 00:42:00,
2013-10-21 20:53:00,53.0,37.0,29.90,SSW,202,0.0,0.0,55,0.00,,,0.00,,2013-10-22 00:53:00,
2013-10-21 21:12:00,52.0,37.0,29.89,SSW,202,0.0,0.0,56,0.00,,,0.00,,2013-10-22 01:12:00,
2013-10-21 21:22:00,52.0,37.0,29.89,SSW,202,0.0,0.0,57,0.00,,,0.00,,2013-10-22 01:22:00,
2013-10-21 21:42:00,51.0,36.0,29.89,SSW,202,0.0,0.0,57,0.00,,,0.00,,2013-10-22 01:42:00,
2013-10-21 21:52:00,51.0,37.0,29.89,SSW,202,0.0,0.0,58,0.00,,,0.00,,2013-10-22 01:52:00,
2013-10-21 22:11:00,50.0,36.0,29.90,SSW,202,0.0,0.0,59,0.00,,,0.00,,2013-10-22 02:11:00,
2013-10-21 22:22:00,50.0,36.0,29.90,SSW,202,0.0,0.0,59,0.00,,,0.00,,2013-10-22 02:22:00,
2013-10-21 22:43:00,51.0,38.0,29.89,SSW,202,0.0,0.0,60,0.00,,,0.00,,2013-10-22 02:43:00,
2013-10-21 22:52:00,50.0,37.0,29.89,SSW,202,0.0,0.0,60,0.00,,,0.00,,2013-10-22 02:52:00,
2013-10-21 23:12:00,50.0,37.0,29.88,SSW,202,0.0,0.0,61,0.00,,,0.00,,2013-10-22 03:12:00,
2013-10-21 23:22:00,50.0,38.0,29.88,SSW,202,0.0,0.0,62,0.00,,,0.00,,2013-10-22 03:22:00,
2013-10-21 23:45:00,50.0,38.0,29.88,SSW,202,0.0,0.0,62,0.00,,,0.00,,2013-10-22 03:45:00,
2013-10-21 23:55:00,50.0,38.0,29.88,SSW,202,0.0,0.0,63,0.00,,,0.00,,2013-10-22 03:55:00,